Back to catalog

SL-8 R/B

AlivePO
NORAD 13950·ROCKET BODY·🇷🇺 Russia

Launched Mar 30, 1983 from Plesetsk Cosmodrome

Loading…

Next Passes (next 24 hours)

TLE

FreshSource: Space-Track

Epoch: Sep 14, 2026, 04:09 UTC

1 13950U 83023B   26257.17295302  .00000073  00000-0  57874-4 0  9990
2 13950  82.9588 345.5953 0037304 173.4002 186.7655 13.77190994183200

Track SL-8 R/B in real time with AllMySat

Download on the App Store